contact:dominique.lefevre@mio.osupytheas.fr, maurice.libes@osupytheas.fr, didier.mallarino@osupytheas.fr
Project:EMSO http://www.emso-fr.org/EMSO-France
Depth: 2436.0 m
Title:EMSO Ligure Ouest : Data MII capteur AQUADOPP
Date,Latitude,Longitude,X_East,Y_North,Z_Up,Amplitude_X,Amplitude_Y,Amplitude_Z,Batterie,SoundSpeed,Heading,Pitch,Roll,Pressure,TIS,Speed,Direction
, degrees North, degrees East, m.s-1, m.s-1,m.s-1, 1, 1, 1, Volt, m.s-1, degree, degree, degree, dbar, degree_C, m.s-1, degree
2020-12-07T00:04:03,42.805,6.029,0.025,-0.021,0.0,101.0,103.0,100.0,13.3,1505.2,327.7,-0.7,1.8,2470.512,13.3,0.032,130.0
2020-12-07T00:07:03,42.805,6.029,0.027,-0.019,0.011,101.0,103.0,99.0,13.4,1505.3,327.6,-0.7,1.8,2470.5,13.31,0.033,125.1
2020-12-07T00:10:03,42.805,6.029,0.004,-0.025,-0.006,99.0,105.0,100.0,13.4,1505.3,327.6,-0.7,1.8,2470.55,13.31,0.025,170.9
2020-12-07T00:13:03,42.805,6.029,0.007,-0.031,-0.003,102.0,105.0,98.0,13.4,1505.3,325.2,-0.7,1.9,2470.493,13.32,0.031,167.3
2020-12-07T00:16:03,42.805,6.029,0.016,-0.036,-0.018,102.0,103.0,99.0,13.4,1505.3,323.6,-0.7,1.8,2470.484,13.32,0.039,156.0
2020-12-07T00:19:03,42.805,6.029,0.03,-0.03,-0.029,100.0,104.0,100.0,13.4,1505.3,326.4,-0.7,1.8,2470.448,13.32,0.042,135.0
2020-12-07T00:22:03,42.805,6.029,0.005,-0.026,-0.024,102.0,105.0,100.0,13.4,1505.3,326.7,-0.7,1.8,2470.491,13.32,0.026,169.1
2020-12-07T00:25:03,42.805,6.029,0.016,-0.039,-0.004,102.0,106.0,100.0,13.3,1505.3,327.8,-0.7,1.8,2470.497,13.32,0.042,157.7
2020-12-07T00:28:03,42.805,6.029,-0.001,-0.011,-0.011,101.0,105.0,100.0,13.4,1505.3,327.6,-0.7,1.8,2470.482,13.32,0.011,185.2
2020-12-07T00:31:03,42.805,6.029,0.043,-0.039,0.007,103.0,105.0,98.0,13.4,1505.3,326.0,-0.7,1.8,2470.465,13.32,0.058,132.2
2020-12-07T00:34:03,42.805,6.029,0.027,-0.029,0.007,104.0,106.0,98.0,13.3,1505.3,323.5,-0.7,1.8,2470.45,13.32,0.039,137.0
2020-12-07T00:37:03,42.805,6.029,0.007,-0.031,0.011,103.0,105.0,100.0,13.3,1505.3,326.3,-0.7,1.8,2470.489,13.32,0.031,167.3
2020-12-07T00:40:03,42.805,6.029,0.035,-0.045,-0.011,101.0,105.0,100.0,13.4,1505.3,326.2,-0.7,1.8,2470.469,13.32,0.057,142.1
2020-12-07T00:43:03,42.805,6.029,0.042,-0.029,0.025,102.0,103.0,100.0,13.4,1505.3,323.5,-0.7,1.8,2470.48,13.32,0.051,124.6
2020-12-07T00:46:03,42.805,6.029,0.011,-0.021,0.017,102.0,105.0,100.0,13.3,1505.3,326.8,-0.7,1.8,2470.447,13.32,0.023,152.4
2020-12-07T00:49:03,42.805,6.029,0.021,-0.025,0.022,102.0,105.0,101.0,13.4,1505.3,326.2,-0.7,1.8,2470.428,13.32,0.032,140.0
2020-12-07T00:52:03,42.805,6.029,0.003,-0.024,-0.026,102.0,105.0,100.0,13.4,1505.3,323.0,-0.7,1.8,2470.444,13.32,0.024,172.9
2020-12-07T00:55:03,42.805,6.029,0.022,-0.03,0.0,102.0,104.0,100.0,13.4,1505.3,324.2,-0.7,1.8,2470.469,13.32,0.037,143.7
2020-12-07T00:58:03,42.805,6.029,0.036,-0.035,0.037,101.0,104.0,100.0,13.3,1505.3,327.9,-0.7,1.9,2470.46,13.32,0.05,134.2
2020-12-07T01:04:03,42.805,6.029,0.008,-0.021,-0.007,104.0,106.0,100.0,13.4,1505.2,326.7,-0.7,1.8,2470.489,13.3,0.022,159.1
2020-12-07T01:07:03,42.805,6.029,0.021,-0.039,-0.032,101.0,105.0,99.0,13.4,1505.3,328.0,-0.7,1.8,2470.477,13.31,0.044,151.7
2020-12-07T01:10:03,42.805,6.029,-0.011,-0.044,-0.008,102.0,105.0,99.0,13.4,1505.3,324.7,-0.7,1.8,2470.481,13.31,0.045,194.0
2020-12-07T01:13:03,42.805,6.029,0.006,-0.035,-0.015,103.0,104.0,99.0,13.3,1505.3,326.4,-0.7,1.8,2470.477,13.32,0.035,170.3
2020-12-07T01:16:03,42.805,6.029,0.012,-0.063,-0.011,102.0,102.0,100.0,13.4,1505.3,323.8,-0.7,1.8,2470.5,13.32,0.064,169.2
2020-12-07T01:19:03,42.805,6.029,0.021,-0.036,-0.02,100.0,105.0,100.0,13.4,1505.3,324.8,-0.7,1.9,2470.433,13.32,0.041,149.7
2020-12-07T01:22:03,42.805,6.029,0.011,-0.013,0.012,102.0,103.0,100.0,13.3,1505.3,324.7,-0.7,1.8,2470.445,13.32,0.017,139.8
2020-12-07T01:25:03,42.805,6.029,0.011,-0.041,-0.004,101.0,104.0,100.0,13.4,1505.3,326.3,-0.7,1.8,2470.505,13.32,0.042,165.0
2020-12-07T01:28:03,42.805,6.029,0.006,-0.024,0.002,102.0,104.0,100.0,13.3,1505.3,327.9,-0.7,1.8,2470.478,13.32,0.024,166.0
2020-12-07T01:31:03,42.805,6.029,0.024,-0.047,-0.017,101.0,105.0,100.0,13.4,1505.3,323.9,-0.7,1.8,2470.448,13.32,0.052,153.0
2020-12-07T01:34:03,42.805,6.029,0.012,-0.044,-0.031,104.0,104.0,98.0,13.3,1505.3,327.0,-0.7,1.8,2470.469,13.32,0.045,164.7
2020-12-07T01:37:03,42.805,6.029,-0.006,-0.045,-0.012,103.0,104.0,101.0,13.3,1505.3,325.2,-0.7,1.8,2470.455,13.32,0.045,187.6
2020-12-07T01:40:03,42.805,6.029,0.008,-0.067,-0.037,102.0,105.0,99.0,13.4,1505.3,327.0,-0.7,1.8,2470.443,13.32,0.067,173.2
2020-12-07T01:43:03,42.805,6.029,0.011,-0.049,0.005,102.0,103.0,101.0,13.4,1505.3,326.3,-0.7,1.8,2470.455,13.32,0.05,167.3
2020-12-07T01:46:03,42.805,6.029,0.0,-0.034,-0.038,102.0,103.0,99.0,13.4,1505.3,325.4,-0.7,1.8,2470.469,13.32,0.034,180.0
2020-12-07T01:49:03,42.805,6.029,0.046,-0.06,0.002,102.0,104.0,99.0,13.3,1505.3,324.9,-0.7,1.8,2470.479,13.32,0.075,142.5
2020-12-07T01:52:03,42.805,6.029,0.022,-0.039,0.034,101.0,104.0,100.0,13.4,1505.3,324.3,-0.7,1.8,2470.458,13.32,0.044,150.6
2020-12-07T01:55:03,42.805,6.029,0.026,-0.053,0.015,102.0,103.0,100.0,13.4,1505.3,325.0,-0.7,1.8,2470.45,13.32,0.059,153.9
2020-12-07T01:58:03,42.805,6.029,0.002,-0.032,-0.001,101.0,104.0,100.0,13.4,1505.3,326.2,-0.7,1.8,2470.446,13.32,0.032,176.4
2020-12-07T02:04:03,42.805,6.029,0.005,-0.04,-0.006,102.0,102.0,99.0,13.3,1505.2,327.1,-0.7,1.9,2470.503,13.3,0.04,172.9
2020-12-07T02:07:03,42.805,6.029,0.025,-0.029,-0.038,101.0,105.0,99.0,13.4,1505.3,324.2,-0.7,1.8,2470.5,13.31,0.038,139.2
2020-12-07T02:10:03,42.805,6.029,0.0,-0.028,-0.028,101.0,104.0,99.0,13.4,1505.3,326.6,-0.7,1.8,2470.496,13.31,0.028,180.0
2020-12-07T02:13:03,42.805,6.029,0.035,-0.058,0.006,102.0,104.0,100.0,13.4,1505.3,323.1,-0.7,1.8,2470.473,13.32,0.067,148.9
2020-12-07T02:16:03,42.805,6.029,0.048,-0.059,0.004,101.0,104.0,99.0,13.4,1505.3,324.0,-0.7,1.8,2470.498,13.32,0.076,140.9
2020-12-07T02:19:03,42.805,6.029,0.013,-0.023,0.004,102.0,103.0,99.0,13.4,1505.3,327.9,-0.7,1.8,2470.439,13.32,0.026,150.5
2020-12-07T02:22:03,42.805,6.029,0.001,-0.025,-0.041,102.0,103.0,98.0,13.4,1505.3,323.9,-0.7,1.8,2470.465,13.32,0.025,177.7
2020-12-07T02:25:03,42.805,6.029,0.007,-0.052,-0.036,101.0,103.0,100.0,13.3,1505.3,326.7,-0.7,1.8,2470.489,13.32,0.052,172.3
2020-12-07T02:28:03,42.805,6.029,0.026,-0.047,-0.014,102.0,104.0,100.0,13.4,1505.3,326.6,-0.7,1.8,2470.473,13.32,0.053,151.0
2020-12-07T02:31:03,42.805,6.029,0.044,-0.064,-0.03,101.0,103.0,101.0,13.3,1505.3,324.3,-0.7,1.8,2470.437,13.32,0.077,145.5
2020-12-07T02:34:03,42.805,6.029,0.004,-0.055,-0.01,102.0,104.0,99.0,13.4,1505.3,324.2,-0.7,1.8,2470.43,13.32,0.055,175.8
2020-12-07T02:37:03,42.805,6.029,0.027,-0.045,-0.016,101.0,103.0,100.0,13.4,1505.3,324.4,-0.7,1.8,2470.439,13.32,0.052,149.0
2020-12-07T02:40:03,42.805,6.029,0.012,-0.057,-0.043,102.0,103.0,99.0,13.4,1505.3,326.3,-0.7,1.8,2470.43,13.32,0.058,168.1
2020-12-07T02:43:03,42.805,6.029,0.019,-0.066,-0.048,100.0,104.0,99.0,13.4,1505.3,327.3,-0.7,1.8,2470.452,13.32,0.068,163.9
2020-12-07T02:46:03,42.805,6.029,0.003,-0.035,0.012,101.0,104.0,100.0,13.4,1505.3,325.2,-0.7,1.8,2470.445,13.32,0.035,175.1
2020-12-07T02:49:03,42.805,6.029,0.02,-0.044,0.009,101.0,104.0,100.0,13.4,1505.3,325.8,-0.7,1.8,2470.517,13.32,0.048,155.6
2020-12-07T02:52:03,42.805,6.029,0.023,-0.019,-0.001,103.0,103.0,99.0,13.4,1505.3,323.6,-0.7,1.8,2470.43,13.32,0.029,129.6
2020-12-07T02:58:03,42.805,6.029,0.029,-0.044,-0.021,102.0,104.0,100.0,13.4,1505.2,324.3,-0.7,1.8,2470.462,13.3,0.052,146.6
2020-12-07T03:04:03,42.805,6.029,0.008,-0.052,-0.019,101.0,104.0,100.0,13.4,1505.2,323.4,-0.8,1.8,2470.504,13.29,0.052,171.3
2020-12-07T03:07:03,42.805,6.029,0.043,-0.071,-0.004,101.0,104.0,101.0,13.4,1505.2,326.5,-0.7,1.9,2470.462,13.3,0.083,148.8
2020-12-07T03:10:03,42.805,6.029,0.004,-0.058,0.005,102.0,103.0,100.0,13.4,1505.3,325.1,-0.7,1.8,2470.489,13.31,0.058,176.1
2020-12-07T03:13:03,42.805,6.029,0.026,-0.044,-0.024,101.0,103.0,100.0,13.4,1505.3,325.5,-0.7,1.8,2470.495,13.31,0.051,149.4
2020-12-07T03:16:03,42.805,6.029,0.015,-0.032,0.002,102.0,104.0,100.0,13.4,1505.3,327.3,-0.7,1.9,2470.448,13.32,0.035,154.9
2020-12-07T03:19:03,42.805,6.029,0.032,-0.064,-0.026,102.0,104.0,101.0,13.4,1505.3,322.7,-0.7,1.8,2470.437,13.32,0.071,153.4
2020-12-07T03:22:03,42.805,6.029,0.011,-0.059,-0.009,103.0,103.0,99.0,13.4,1505.3,322.6,-0.7,1.8,2470.455,13.32,0.06,169.4
2020-12-07T03:25:03,42.805,6.029,-0.019,-0.05,-0.014,102.0,103.0,101.0,13.4,1505.3,323.4,-0.7,1.8,2470.411,13.32,0.053,200.8
2020-12-07T03:28:03,42.805,6.029,-0.003,-0.052,-0.02,102.0,104.0,99.0,13.4,1505.3,323.0,-0.7,1.8,2470.409,13.32,0.052,183.3
2020-12-07T03:31:03,42.805,6.029,-0.019,-0.042,0.001,102.0,104.0,100.0,13.4,1505.3,327.7,-0.7,1.8,2470.449,13.32,0.046,204.3
2020-12-07T03:34:03,42.805,6.029,-0.01,-0.048,-0.02,104.0,103.0,99.0,13.3,1505.3,323.3,-0.7,1.8,2470.469,13.32,0.049,191.8
2020-12-07T03:37:03,42.805,6.029,-0.024,-0.036,-0.037,102.0,104.0,99.0,13.4,1505.3,326.4,-0.7,1.9,2470.419,13.32,0.043,213.7
2020-12-07T03:40:03,42.805,6.029,0.008,-0.036,-0.031,102.0,104.0,100.0,13.4,1505.3,326.4,-0.7,1.8,2470.437,13.32,0.036,167.5
2020-12-07T03:43:03,42.805,6.029,0.0,-0.05,-0.026,103.0,104.0,99.0,13.3,1505.3,327.1,-0.7,1.8,2470.445,13.32,0.05,180.0
2020-12-07T03:46:03,42.805,6.029,0.002,-0.067,-0.006,102.0,103.0,101.0,13.4,1505.3,326.3,-0.7,1.8,2470.427,13.32,0.067,178.3
2020-12-07T03:49:03,42.805,6.029,0.01,-0.042,0.025,102.0,104.0,100.0,13.3,1505.3,326.8,-0.7,1.9,2470.427,13.32,0.043,166.6
2020-12-07T03:52:03,42.805,6.029,0.014,-0.056,-0.036,103.0,104.0,100.0,13.3,1505.3,326.8,-0.7,1.8,2470.399,13.32,0.057,166.0
2020-12-07T03:55:03,42.805,6.029,-0.011,-0.071,-0.014,101.0,102.0,101.0,13.4,1505.3,327.8,-0.7,1.9,2470.435,13.32,0.071,188.8
2020-12-07T03:58:03,42.805,6.029,-0.012,-0.054,-0.041,103.0,103.0,100.0,13.4,1505.3,327.8,-0.7,1.8,2470.399,13.32,0.055,192.5
2020-12-07T04:04:03,42.805,6.029,0.016,-0.053,-0.022,102.0,102.0,100.0,13.4,1505.2,326.8,-0.7,1.8,2470.459,13.3,0.055,163.2
2020-12-07T04:07:03,42.805,6.029,0.018,-0.043,0.016,102.0,102.0,100.0,13.4,1505.3,326.6,-0.7,1.8,2470.417,13.31,0.046,157.3
2020-12-07T04:10:03,42.805,6.029,-0.012,-0.074,-0.028,103.0,104.0,100.0,13.4,1505.3,323.0,-0.7,1.8,2470.441,13.31,0.074,189.2
2020-12-07T04:13:03,42.805,6.029,-0.006,-0.055,-0.003,102.0,103.0,100.0,13.3,1505.3,327.5,-0.7,1.9,2470.409,13.31,0.055,186.2
2020-12-07T04:16:03,42.805,6.029,0.0,-0.072,0.003,102.0,104.0,100.0,13.4,1505.3,324.1,-0.7,1.8,2470.422,13.32,0.071,180.0
2020-12-07T04:19:03,42.805,6.029,-0.014,-0.049,-0.003,100.0,104.0,101.0,13.4,1505.3,328.3,-0.7,1.8,2470.448,13.32,0.05,195.9
2020-12-07T04:22:03,42.805,6.029,-0.028,-0.071,-0.037,102.0,104.0,99.0,13.4,1505.3,324.5,-0.7,1.8,2470.431,13.32,0.076,201.5
2020-12-07T04:25:03,42.805,6.029,-0.007,-0.06,-0.026,101.0,102.0,100.0,13.3,1505.3,327.3,-0.7,1.8,2470.442,13.32,0.06,186.7
2020-12-07T04:28:03,42.805,6.029,0.009,-0.044,-0.014,101.0,104.0,100.0,13.4,1505.3,328.0,-0.7,1.8,2470.433,13.32,0.044,168.4
2020-12-07T04:31:03,42.805,6.029,-0.025,-0.05,-0.024,101.0,102.0,100.0,13.4,1505.3,325.3,-0.7,1.9,2470.406,13.32,0.055,206.6
2020-12-07T04:34:03,42.805,6.029,-0.003,-0.054,-0.029,103.0,103.0,101.0,13.4,1505.3,322.5,-0.7,1.8,2470.417,13.32,0.054,183.2
2020-12-07T04:37:03,42.805,6.029,0.0,-0.05,0.001,102.0,103.0,100.0,13.4,1505.3,325.1,-0.7,1.8,2470.417,13.32,0.05,180.0
2020-12-07T04:40:03,42.805,6.029,-0.023,-0.058,-0.004,102.0,104.0,100.0,13.3,1505.3,323.5,-0.7,1.8,2470.419,13.32,0.062,201.6
2020-12-07T04:43:03,42.805,6.029,-0.011,-0.058,-0.004,101.0,104.0,100.0,13.4,1505.3,323.3,-0.7,1.8,2470.428,13.32,0.059,190.7
2020-12-07T04:46:03,42.805,6.029,0.011,-0.041,0.012,102.0,104.0,100.0,13.4,1505.3,327.2,-0.7,1.9,2470.454,13.32,0.042,165.0
2020-12-07T04:49:03,42.805,6.029,-0.017,-0.058,-0.016,102.0,103.0,100.0,13.4,1505.3,325.5,-0.7,1.8,2470.403,13.32,0.06,196.3
2020-12-07T04:52:03,42.805,6.029,-0.034,-0.067,-0.019,101.0,103.0,101.0,13.3,1505.3,324.2,-0.7,1.8,2470.421,13.32,0.075,206.9
2020-12-07T04:55:03,42.805,6.029,-0.008,-0.065,-0.027,101.0,103.0,101.0,13.4,1505.3,324.1,-0.7,1.8,2470.385,13.32,0.065,187.0
2020-12-07T04:58:03,42.805,6.029,-0.011,-0.051,-0.005,104.0,102.0,100.0,13.4,1505.3,326.4,-0.7,1.8,2470.41,13.32,0.052,192.2
2020-12-07T05:04:03,42.805,6.029,-0.004,-0.048,0.0,103.0,104.0,100.0,13.3,1505.2,327.6,-0.7,1.8,2470.451,13.3,0.048,184.8
2020-12-07T05:07:03,42.805,6.029,0.002,-0.049,-0.003,103.0,104.0,101.0,13.3,1505.3,326.4,-0.7,1.8,2470.423,13.31,0.049,177.7
2020-12-07T05:10:03,42.805,6.029,-0.004,-0.053,-0.014,102.0,105.0,101.0,13.4,1505.3,327.0,-0.7,1.8,2470.454,13.31,0.053,184.3
2020-12-07T05:13:03,42.805,6.029,0.006,-0.047,0.024,104.0,104.0,101.0,13.4,1505.3,324.2,-0.7,1.8,2470.467,13.32,0.047,172.7
2020-12-07T05:16:03,42.805,6.029,0.022,-0.062,-0.017,103.0,104.0,102.0,13.4,1505.3,327.1,-0.7,1.9,2470.43,13.32,0.065,160.5
2020-12-07T05:19:03,42.805,6.029,-0.008,-0.034,-0.01,103.0,106.0,102.0,13.4,1505.3,325.3,-0.7,1.8,2470.422,13.32,0.034,193.2
2020-12-07T05:22:03,42.805,6.029,-0.021,-0.042,-0.009,103.0,105.0,101.0,13.4,1505.3,327.7,-0.7,1.8,2470.427,13.32,0.046,206.6
2020-12-07T05:25:03,42.805,6.029,-0.025,-0.051,-0.006,105.0,105.0,102.0,13.4,1505.3,324.3,-0.7,1.8,2470.421,13.32,0.056,206.1
2020-12-07T05:28:03,42.805,6.029,-0.008,-0.059,-0.045,105.0,105.0,101.0,13.4,1505.3,326.0,-0.7,1.8,2470.419,13.32,0.059,187.7
2020-12-07T05:31:03,42.805,6.029,-0.019,-0.042,-0.002,105.0,104.0,101.0,13.4,1505.3,324.8,-0.7,1.9,2470.402,13.32,0.046,204.3
2020-12-07T05:34:03,42.805,6.029,-0.004,-0.041,-0.012,104.0,106.0,101.0,13.4,1505.3,328.4,-0.7,1.9,2470.429,13.32,0.041,185.6
2020-12-07T05:37:03,42.805,6.029,-0.051,-0.044,-0.023,104.0,106.0,101.0,13.4,1505.3,327.1,-0.7,1.8,2470.42,13.32,0.067,229.2
2020-12-07T05:40:03,42.805,6.029,0.004,-0.065,0.003,104.0,105.0,102.0,13.4,1505.3,327.6,-0.7,1.8,2470.414,13.32,0.065,176.5
2020-12-07T05:43:03,42.805,6.029,-0.007,-0.042,-0.017,104.0,105.0,101.0,13.3,1505.3,325.6,-0.7,1.8,2470.394,13.32,0.042,189.5
2020-12-07T05:46:03,42.805,6.029,-0.023,-0.069,-0.052,104.0,106.0,101.0,13.4,1505.3,326.3,-0.7,1.8,2470.443,13.32,0.072,198.4
2020-12-07T05:49:03,42.805,6.029,-0.034,-0.061,-0.007,106.0,105.0,102.0,13.4,1505.3,325.7,-0.7,1.9,2470.414,13.32,0.069,209.1
2020-12-07T05:52:03,42.805,6.029,-0.036,-0.068,-0.011,105.0,106.0,101.0,13.3,1505.3,326.9,-0.7,1.8,2470.407,13.32,0.076,207.9
2020-12-07T05:55:03,42.805,6.029,-0.021,-0.03,0.001,105.0,106.0,101.0,13.4,1505.3,322.8,-0.7,1.8,2470.451,13.32,0.036,215.0
2020-12-07T05:58:03,42.805,6.029,-0.03,-0.029,-0.031,105.0,105.0,102.0,13.4,1505.3,323.6,-0.7,1.8,2470.401,13.32,0.041,226.0
2020-12-07T06:04:03,42.805,6.029,0.004,-0.054,-0.009,106.0,106.0,102.0,13.3,1505.2,324.2,-0.7,1.8,2470.48,13.3,0.054,175.8
2020-12-07T06:07:03,42.805,6.029,-0.012,-0.043,-0.027,106.0,106.0,103.0,13.3,1505.3,326.6,-0.7,1.8,2470.407,13.31,0.044,195.6
2020-12-07T06:10:03,42.805,6.029,-0.064,-0.033,-0.027,105.0,107.0,102.0,13.4,1505.3,323.9,-0.7,1.8,2470.438,13.31,0.072,242.7
2020-12-07T06:13:03,42.805,6.029,-0.016,-0.033,0.003,107.0,105.0,102.0,13.4,1505.3,325.6,-0.7,1.8,2470.435,13.32,0.036,205.9
2020-12-07T06:16:03,42.805,6.029,-0.015,-0.02,-0.008,105.0,106.0,103.0,13.3,1505.3,324.3,-0.7,1.8,2470.414,13.32,0.025,216.9
2020-12-07T06:19:03,42.805,6.029,-0.026,-0.038,-0.001,105.0,107.0,102.0,13.3,1505.3,324.7,-0.7,1.8,2470.43,13.32,0.046,214.4
2020-12-07T06:22:03,42.805,6.029,-0.008,-0.03,-0.011,106.0,107.0,103.0,13.3,1505.3,326.4,-0.7,1.8,2470.418,13.32,0.031,194.9
2020-12-07T06:25:03,42.805,6.029,-0.027,-0.024,-0.014,105.0,105.0,102.0,13.4,1505.3,326.8,-0.7,1.9,2470.398,13.32,0.036,228.4
2020-12-07T06:28:03,42.805,6.029,-0.015,-0.042,0.019,106.0,106.0,102.0,13.4,1505.3,328.0,-0.7,1.8,2470.447,13.32,0.044,199.6
2020-12-07T06:31:03,42.805,6.029,-0.033,-0.028,-0.018,105.0,106.0,101.0,13.4,1505.3,326.0,-0.7,1.8,2470.439,13.32,0.043,229.7
2020-12-07T06:34:03,42.805,6.029,-0.027,-0.02,-0.022,106.0,106.0,102.0,13.4,1505.3,324.0,-0.7,1.8,2470.432,13.32,0.033,233.5
2020-12-07T06:37:03,42.805,6.029,-0.013,-0.05,-0.02,106.0,106.0,103.0,13.4,1505.3,325.2,-0.7,1.8,2470.407,13.32,0.051,194.6
2020-12-07T06:40:03,42.805,6.029,-0.02,-0.045,-0.009,106.0,107.0,102.0,13.4,1505.3,322.8,-0.7,1.8,2470.448,13.32,0.049,204.0
2020-12-07T06:43:03,42.805,6.029,-0.003,-0.025,-0.005,105.0,106.0,102.0,13.3,1505.3,325.3,-0.7,1.8,2470.434,13.32,0.025,186.8
2020-12-07T06:46:03,42.805,6.029,-0.013,-0.002,0.012,105.0,106.0,102.0,13.3,1505.3,328.1,-0.7,1.8,2470.458,13.32,0.013,261.3
2020-12-07T06:49:03,42.805,6.029,-0.003,-0.052,-0.006,105.0,106.0,103.0,13.3,1505.3,323.7,-0.7,1.8,2470.424,13.33,0.052,183.3
2020-12-07T06:52:03,42.805,6.029,-0.011,-0.058,-0.012,103.0,106.0,102.0,13.4,1505.3,328.4,-0.7,1.8,2470.413,13.32,0.059,190.7
2020-12-07T06:55:03,42.805,6.029,-0.036,-0.049,-0.025,105.0,105.0,102.0,13.3,1505.3,326.0,-0.7,1.8,2470.411,13.32,0.06,216.3
2020-12-07T06:58:03,42.805,6.029,-0.012,-0.043,0.019,106.0,108.0,102.0,13.4,1505.3,325.5,-0.7,1.8,2470.438,13.32,0.044,195.6
2020-12-07T07:04:03,42.805,6.029,-0.01,-0.045,-0.017,105.0,106.0,103.0,13.4,1505.2,326.7,-0.7,1.8,2470.458,13.3,0.046,192.5
2020-12-07T07:07:03,42.805,6.029,-0.015,-0.046,-0.008,106.0,106.0,103.0,13.3,1505.3,326.5,-0.7,1.8,2470.418,13.31,0.048,198.1
2020-12-07T07:10:03,42.805,6.029,-0.011,-0.03,-0.027,105.0,107.0,101.0,13.4,1505.3,326.6,-0.8,1.8,2470.456,13.32,0.031,200.1
2020-12-07T07:13:03,42.805,6.029,-0.021,-0.03,0.01,106.0,106.0,103.0,13.4,1505.3,326.3,-0.7,1.8,2470.434,13.32,0.036,215.0
2020-12-07T07:16:03,42.805,6.029,-0.03,-0.028,0.032,105.0,106.0,103.0,13.4,1505.3,326.4,-0.7,1.8,2470.465,13.32,0.041,227.0
2020-12-07T07:19:03,42.805,6.029,-0.027,-0.04,0.016,105.0,107.0,103.0,13.3,1505.3,326.0,-0.7,1.8,2470.469,13.32,0.048,214.0
2020-12-07T07:22:03,42.805,6.029,-0.019,-0.035,0.023,106.0,106.0,102.0,13.4,1505.3,326.5,-0.7,1.8,2470.45,13.32,0.039,208.5
2020-12-07T07:25:03,42.805,6.029,-0.041,-0.038,0.0,106.0,108.0,103.0,13.4,1505.3,325.4,-0.7,1.9,2470.48,13.32,0.055,227.2
2020-12-07T07:28:03,42.805,6.029,-0.032,-0.036,0.0,106.0,107.0,104.0,13.4,1505.3,326.2,-0.7,1.9,2470.46,13.32,0.048,221.6
2020-12-07T07:31:03,42.805,6.029,-0.011,-0.035,-0.016,106.0,107.0,102.0,13.4,1505.3,326.7,-0.7,1.8,2470.452,13.32,0.036,197.4
2020-12-07T07:34:03,42.805,6.029,-0.015,-0.043,0.02,107.0,108.0,103.0,13.4,1505.3,324.8,-0.7,1.8,2470.448,13.32,0.045,199.2
2020-12-07T07:37:03,42.805,6.029,-0.016,-0.042,-0.015,106.0,107.0,103.0,13.3,1505.3,324.3,-0.7,1.9,2470.437,13.32,0.044,200.9
2020-12-07T07:40:03,42.805,6.029,-0.02,-0.011,0.008,106.0,108.0,103.0,13.3,1505.3,328.2,-0.7,1.8,2470.446,13.32,0.022,241.2
2020-12-07T07:43:03,42.805,6.029,-0.019,-0.05,-0.024,106.0,106.0,102.0,13.4,1505.3,326.3,-0.7,1.8,2470.432,13.32,0.053,200.8
2020-12-07T07:46:03,42.805,6.029,-0.025,-0.034,-0.004,107.0,108.0,103.0,13.4,1505.3,328.5,-0.7,1.8,2470.457,13.32,0.042,216.3
2020-12-07T07:49:03,42.805,6.029,-0.015,-0.034,0.009,107.0,109.0,103.0,13.4,1505.3,326.1,-0.7,1.8,2470.494,13.32,0.037,203.8
2020-12-07T07:52:03,42.805,6.029,0.003,-0.034,-0.006,106.0,107.0,103.0,13.4,1505.3,324.3,-0.7,1.8,2470.465,13.32,0.034,175.0
2020-12-07T07:55:03,42.805,6.029,-0.016,-0.042,0.028,105.0,106.0,104.0,13.3,1505.3,327.4,-0.7,1.8,2470.458,13.33,0.044,200.9
2020-12-07T07:58:03,42.805,6.029,-0.026,-0.028,0.012,107.0,108.0,103.0,13.4,1505.3,322.8,-0.7,1.8,2470.485,13.33,0.038,222.9
2020-12-07T08:04:03,42.805,6.029,-0.036,-0.043,0.0,106.0,108.0,102.0,13.4,1505.3,324.2,-0.8,1.8,2470.505,13.31,0.056,219.9
2020-12-07T08:07:03,42.805,6.029,0.0,-0.046,-0.021,106.0,108.0,103.0,13.4,1505.3,326.3,-0.7,1.8,2470.465,13.31,0.046,180.0
2020-12-07T08:13:03,42.805,6.029,-0.016,-0.053,-0.007,106.0,108.0,104.0,13.4,1505.2,326.3,-0.7,1.8,2470.558,13.3,0.055,196.8
2020-12-07T08:16:03,42.805,6.029,-0.024,-0.035,0.02,107.0,108.0,102.0,13.3,1505.3,324.0,-0.7,1.8,2470.55,13.31,0.042,214.4
2020-12-07T08:19:03,42.805,6.029,-0.031,-0.048,-0.026,107.0,108.0,103.0,13.4,1505.3,324.2,-0.7,1.8,2470.496,13.31,0.057,212.9
2020-12-07T08:22:03,42.805,6.029,-0.012,-0.034,-0.02,107.0,107.0,104.0,13.4,1505.3,323.2,-0.7,1.8,2470.503,13.32,0.036,199.4
2020-12-07T08:25:03,42.805,6.029,-0.01,-0.049,-0.001,108.0,107.0,103.0,13.4,1505.3,323.3,-0.7,1.8,2470.521,13.32,0.05,191.5
2020-12-07T08:28:03,42.805,6.029,-0.02,-0.035,-0.005,108.0,107.0,103.0,13.4,1505.3,323.0,-0.7,1.8,2470.505,13.32,0.04,209.7
2020-12-07T08:31:03,42.805,6.029,-0.018,-0.038,0.021,106.0,107.0,104.0,13.4,1505.3,324.5,-0.7,1.8,2470.51,13.32,0.042,205.3
2020-12-07T08:34:03,42.805,6.029,-0.034,-0.039,-0.025,107.0,106.0,104.0,13.4,1505.3,325.5,-0.7,1.8,2470.518,13.32,0.051,221.1
2020-12-07T08:37:03,42.805,6.029,-0.026,-0.055,-0.025,107.0,109.0,104.0,13.3,1505.3,324.7,-0.7,1.8,2470.48,13.33,0.06,205.3
2020-12-07T08:40:03,42.805,6.029,-0.031,-0.046,-0.026,107.0,108.0,104.0,13.4,1505.3,324.2,-0.7,1.8,2470.488,13.33,0.055,214.0
2020-12-07T08:43:03,42.805,6.029,-0.035,-0.029,-0.007,108.0,108.0,103.0,13.4,1505.3,327.3,-0.7,1.8,2470.486,13.32,0.045,230.4
2020-12-07T08:46:03,42.805,6.029,-0.006,-0.05,-0.001,107.0,109.0,103.0,13.3,1505.3,323.2,-0.7,1.8,2470.523,13.32,0.05,186.8
2020-12-07T08:49:03,42.805,6.029,-0.008,-0.033,-0.006,107.0,107.0,104.0,13.4,1505.3,324.0,-0.7,1.8,2470.468,13.32,0.033,193.6
2020-12-07T08:52:03,42.805,6.029,-0.029,-0.052,-0.009,106.0,107.0,104.0,13.4,1505.3,323.2,-0.7,1.8,2470.5,13.32,0.059,209.1
2020-12-07T08:55:03,42.805,6.029,-0.014,-0.025,0.009,106.0,107.0,104.0,13.4,1505.3,322.9,-0.7,1.9,2470.477,13.32,0.028,209.3
2020-12-07T08:58:03,42.805,6.029,-0.029,-0.052,0.0,107.0,109.0,103.0,13.4,1505.3,324.0,-0.7,1.8,2470.491,13.32,0.059,209.1
2020-12-07T09:04:03,42.805,6.029,-0.007,-0.054,-0.002,107.0,107.0,104.0,13.4,1505.2,323.4,-0.7,1.8,2470.53,13.3,0.054,187.4
2020-12-07T09:07:03,42.805,6.029,-0.004,-0.039,0.006,107.0,110.0,103.0,13.4,1505.3,324.6,-0.7,1.9,2470.586,13.31,0.039,185.9
2020-12-07T09:10:03,42.805,6.029,-0.035,-0.029,-0.008,107.0,107.0,103.0,13.3,1505.3,327.4,-0.7,1.8,2470.547,13.32,0.045,230.4
2020-12-07T09:13:03,42.805,6.029,-0.016,-0.032,-0.004,107.0,106.0,103.0,13.4,1505.3,326.6,-0.7,1.8,2470.548,13.32,0.035,206.6
2020-12-07T09:16:03,42.805,6.029,-0.013,-0.034,-0.016,106.0,108.0,103.0,13.4,1505.3,325.8,-0.7,1.8,2470.564,13.32,0.036,200.9
2020-12-07T09:19:03,42.805,6.029,-0.036,-0.047,-0.032,107.0,107.0,103.0,13.3,1505.3,323.8,-0.7,1.8,2470.534,13.32,0.059,217.5
2020-12-07T09:22:03,42.805,6.029,-0.033,-0.051,-0.017,106.0,107.0,104.0,13.4,1505.3,325.3,-0.7,1.8,2470.56,13.32,0.06,212.9
2020-12-07T09:25:03,42.805,6.029,-0.032,-0.058,-0.01,107.0,108.0,103.0,13.3,1505.3,324.8,-0.7,1.8,2470.522,13.32,0.066,208.9
2020-12-07T09:28:03,42.805,6.029,0.017,-0.035,-0.009,108.0,108.0,103.0,13.4,1505.3,325.1,-0.7,1.8,2470.533,13.32,0.038,154.1
2020-12-07T09:31:03,42.805,6.029,0.001,-0.033,-0.009,107.0,106.0,104.0,13.3,1505.3,324.5,-0.7,1.8,2470.55,13.32,0.033,178.3
2020-12-07T09:34:03,42.805,6.029,-0.02,-0.044,0.005,106.0,108.0,103.0,13.4,1505.3,327.3,-0.7,1.8,2470.556,13.32,0.048,204.4
2020-12-07T09:37:03,42.805,6.029,-0.023,-0.047,0.01,108.0,106.0,103.0,13.4,1505.3,325.3,-0.7,1.8,2470.548,13.32,0.052,206.1
2020-12-07T09:40:03,42.805,6.029,-0.006,-0.031,-0.005,107.0,107.0,103.0,13.4,1505.3,323.7,-0.7,1.8,2470.574,13.32,0.031,191.0
2020-12-07T09:43:03,42.805,6.029,-0.027,-0.02,-0.003,105.0,108.0,103.0,13.4,1505.3,327.5,-0.7,1.8,2470.562,13.32,0.033,233.5
2020-12-07T09:46:03,42.805,6.029,-0.024,-0.022,-0.038,106.0,107.0,104.0,13.4,1505.3,324.5,-0.7,1.8,2470.574,13.32,0.032,227.5
2020-12-07T09:49:03,42.805,6.029,-0.041,-0.029,-0.009,105.0,108.0,103.0,13.4,1505.3,326.6,-0.7,1.8,2470.563,13.32,0.05,234.7
2020-12-07T09:52:03,42.805,6.029,-0.04,-0.028,-0.04,106.0,109.0,105.0,13.4,1505.3,324.4,-0.7,1.8,2470.6,13.32,0.048,235.0
2020-12-07T09:55:03,42.805,6.029,-0.013,-0.02,-0.022,106.0,108.0,103.0,13.4,1505.3,325.1,-0.7,1.8,2470.554,13.32,0.023,213.0
2020-12-07T09:58:03,42.805,6.029,-0.033,-0.045,-0.014,106.0,105.0,104.0,13.3,1505.3,326.8,-0.7,1.8,2470.575,13.32,0.055,216.3